User: anonymous   Login
Location: Caltech
(34.1382°N, 118.1253°W)
Time: 04:04:10
(UTC-08:00)
Language:

UOSAT-12 - Orbit

View from above orbital plane
View from above orbital plane
View from above satellite
View from above satellite

Ground track
Ground track

The orbit data is extracted from the following two-line orbital elements,

1 25693U 99021A   14327.90608366  .00000717  00000-0  11137-3 0  6719
2 25693 064.5560 130.5246 0049705 267.5974 251.3983 14.80156508841551
Epoch (UTC): 23 November 2014 21:44:45
Eccentricity: 0.0049705
inclination: 64.5560°
perigee height: 594 km
apogee height: 663 km
right ascension of ascending node: 130.5246°
argument of perigee: 267.5974°
revolutions per day: 14.80156508
mean anomaly at epoch: 251.3983°
orbit number at epoch: 84155

The dashed part of the orbit path shows where the satellite is in the earth's shadow,  

DLR